Location: Oregon Star Party
(44.2935°N, 120.1332°W)
Time: 16:31:32
(UTC-07:00)

Amateur Radio Satellites - All Passes

Search period start: 01 September 2014 16:01
Search period end: 02 September 2014 16:01
Location: Oregon Star Party, 44.2935°N, 120.1332°W

Satellite Date Start Highest point End Downlink Frequencies (MHz)
Time Altitude Azimuth
RS-15 01 Sep 16:06:28 16:17:30 67° 49° (NE) 16:28:54 29.354 - 29.394 USB, Beacon 29.352 USB
JAS-2 01 Sep 16:27:03 16:29:49 14° 58° (ENE) 16:32:30 435.800 - 435.900 CW/SSB, 435.910 FM
AO-7 01 Sep 16:27:48 16:36:10 82° 252° (WSW) 16:44:33 29.400 - 29.500 MHz
PCSat 01 Sep 16:28:44 16:33:48 43° 113° (ESE) 16:38:55 145.825 MHz
JAS-1B 01 Sep 16:32:55 16:39:10 19° 273° (W) 16:45:04 435.800 - 435.900 CW/SSB
Gurwin Techsat 1B 01 Sep 16:38:14 16:40:36 13° 272° (W) 16:42:59 435.225 FM
ISS 01 Sep 17:11:43 17:14:32 25° 223° (SW) 17:17:20 145.800 FM
Hamsat 01 Sep 17:16:20 17:19:58 27° 67° (ENE) 17:23:38 145.90 MHz
OPAL 01 Sep 17:20:20 17:25:23 47° 101° (ESE) 17:30:23 ?
Uosat F 01 Sep 17:32:52 17:36:50 23° 266° (W) 17:40:49 435.120 FM
Sapphire 01 Sep 17:42:32 17:47:50 55° 306° (NW) 17:53:11 437.095 MHz 1200 baud AX-25 AFSK
JAS-2 01 Sep 18:08:15 18:14:18 88° 75° (ENE) 18:19:45 435.800 - 435.900 CW/SSB, 435.910 FM
PCSat 01 Sep 18:12:29 18:17:21 33° 312° (NW) 18:22:15 145.825 MHz
SO-67 01 Sep 18:18:14 18:20:15 15° 66° (ENE) 18:22:17 435.3500 MHz FM
RS-15 01 Sep 18:19:24 18:29:16 39° 252° (WSW) 18:39:31 29.354 - 29.394 USB, Beacon 29.352 USB
AO-7 01 Sep 18:25:03 18:30:09 17° 272° (W) 18:35:16 29.400 - 29.500 MHz
Hamsat 01 Sep 18:52:01 18:55:50 30° 265° (W) 18:59:42 145.90 MHz
OPAL 01 Sep 18:59:45 19:03:59 26° 299° (WNW) 19:08:12 ?
STRAND 1 01 Sep 19:07:53 19:12:16 28° 95° (E) 19:16:38 ?
Sapphire 01 Sep 19:29:53 19:32:30 13° 328° (NNW) 19:35:08 437.095 MHz 1200 baud AX-25 AFSK
HO-68 01 Sep 19:40:31 19:46:13 27° 57° (ENE) 19:51:55 435.675 MHz FM
SO-67 01 Sep 19:49:48 19:53:01 35° 263° (W) 19:56:15 435.3500 MHz FM
JAS-2 01 Sep 19:57:27 19:59:59 13° 271° (W) 20:02:26 435.800 - 435.900 CW/SSB, 435.910 FM
STRAND 1 01 Sep 20:46:50 20:51:31 38° 292° (WNW) 20:56:13 ?
UKube-1 01 Sep 20:48:31 20:52:16 29° 67° (ENE) 20:56:01 145.840 MHz, 145.915 MHz
Oscar 11 01 Sep 20:52:51 20:56:04 21° 65° (ENE) 20:59:19 145.825 FM, Beacon 2401.500 USB
Saudisat 1A 01 Sep 21:22:01 21:24:28 15° 110° (ESE) 21:26:55 436.775 MHz
FUNcube-1 01 Sep 21:25:12 21:28:01 18° 63° (ENE) 21:30:53 145.950 - 145.970 MHz USB
HO-68 01 Sep 21:26:14 21:33:20 69° 256° (WSW) 21:40:29 435.675 MHz FM
MaSat-1 01 Sep 21:41:09 21:45:20 32° 52° (NE) 21:49:02 437.345 MHz
KITSAT 1 01 Sep 22:19:36 22:26:05 28° 105° (ESE) 22:32:35 435.175 FM
UKube-1 01 Sep 22:24:42 22:28:26 28° 264° (W) 22:32:11 145.840 MHz, 145.915 MHz
Oscar 11 01 Sep 22:27:54 22:31:59 41° 262° (W) 22:36:08 145.825 FM, Beacon 2401.500 USB
Saudisat 1A 01 Sep 22:59:08 23:03:31 67° 307° (NW) 23:07:56 436.775 MHz
FUNcube-1 01 Sep 23:00:01 23:04:03 46° 261° (W) 23:08:13 145.950 - 145.970 MHz USB
MaSat-1 01 Sep 23:18:24 23:22:13 28° 254° (WSW) 23:25:36 437.345 MHz
AO-40 01 Sep 23:19:22 02:01:58 22° 125° (SE) 03:18:12 Beacon 2401.320
HO-68 01 Sep 23:20:02 23:22:19 12° 275° (W) 23:24:35 435.675 MHz FM
PCSat 01 Sep 23:33:03 23:35:22 13° 31° (NNE) 23:37:40 145.825 MHz
Oscar 10/S400 02 Sep 00:00:57 00:40:25 55° 194° (SSW) 08:43:49 145.825 - 145.975 CW/USB, Beacon 145.810 USB
KITSAT 1 02 Sep 00:12:42 00:20:47 73° 305° (NW) 00:28:54 435.175 FM
Saudisat 1A 02 Sep 00:41:42 00:43:56 14° 328° (NNW) 00:46:11 436.775 MHz
Sapphire 02 Sep 00:45:50 00:50:37 30° 46° (NE) 00:55:22 437.095 MHz 1200 baud AX-25 AFSK
PCSat 02 Sep 01:14:50 01:20:08 50° 53° (NE) 01:25:23 145.825 MHz
Oscar 19 02 Sep 01:21:15 01:24:00 14° 89° (E) 01:26:44 437.125 CW, 437.150 USB
Oscar 16 02 Sep 01:55:12 01:59:47 30° 95° (E) 02:04:19 437.025 USB, Beacon 2401.1428
ITAMSAT 1 02 Sep 01:59:16 02:01:54 14° 89° (E) 02:04:33 435.822 SSB
Uribyol 2 02 Sep 02:07:53 02:11:25 18° 91° (E) 02:14:56 436.500 FM
KITSAT 1 02 Sep 02:11:20 02:17:41 24° 330° (NNW) 02:24:04 435.175 FM
JAS-1B 02 Sep 02:24:40 02:29:56 25° 90° (E) 02:34:41 435.800 - 435.900 CW/SSB
AO-27 02 Sep 02:27:41 02:32:01 26° 94° (E) 02:36:20 436.795 MHz FM
Sapphire 02 Sep 02:29:02 02:34:15 48° 246° (WSW) 02:39:26 437.095 MHz 1200 baud AX-25 AFSK
Oscar 19 02 Sep 02:58:43 03:03:56 76° 286° (WNW) 03:09:06 437.125 CW, 437.150 USB
PCSat 02 Sep 02:58:48 03:03:15 26° 252° (WSW) 03:07:40 145.825 MHz
OPAL 02 Sep 03:00:47 03:03:43 16° 55° (NE) 03:06:40 ?
AO-Echo 02 Sep 03:06:20 03:11:01 65° 102° (ESE) 03:15:43 ?
Gurwin Techsat 1B 02 Sep 03:09:41 03:14:20 30° 95° (E) 03:18:56 435.225 FM
Oscar 16 02 Sep 03:34:25 03:39:09 36° 293° (WNW) 03:43:52 437.025 USB, Beacon 2401.1428
ITAMSAT 1 02 Sep 03:36:48 03:41:59 77° 286° (WNW) 03:47:10 435.822 SSB
SO-50 02 Sep 03:40:01 03:44:30 79° 123° (ESE) 03:49:06 436.795 FM
Uribyol 2 02 Sep 03:46:10 03:51:17 61° 288° (WNW) 03:56:24 436.500 FM
TMSAT-1 02 Sep 03:59:11 04:04:26 61° 101° (E) 04:09:40 436.925 FM
Uosat F 02 Sep 04:01:29 04:03:07 12° 88° (E) 04:04:46 435.120 FM
AO-27 02 Sep 04:06:48 04:11:40 42° 292° (WNW) 04:16:31 436.795 MHz FM
KITSAT 1 02 Sep 04:12:15 04:16:36 15° 0° (N) 04:20:57 435.175 FM
JAS-1B 02 Sep 04:14:36 04:21:08 52° 293° (WNW) 04:26:49 435.800 - 435.900 CW/SSB
AO-7 02 Sep 04:28:11 04:35:18 31° 95° (E) 04:42:21 29.400 - 29.500 MHz
OPAL 02 Sep 04:36:50 04:41:55 83° 254° (WSW) 04:47:06 ?
Oscar 19 02 Sep 04:40:39 04:42:23 12° 305° (NW) 04:44:06 437.125 CW, 437.150 USB
AO-Echo 02 Sep 04:46:31 04:49:18 16° 299° (WNW) 04:52:05 ?
Gurwin Techsat 1B 02 Sep 04:49:28 04:54:22 38° 293° (WNW) 04:59:13 435.225 FM
ITAMSAT 1 02 Sep 05:18:48 05:20:37 12° 305° (NW) 05:22:26 435.822 SSB
SO-50 02 Sep 05:22:24 05:25:38 19° 324° (NW) 05:28:56 436.795 FM
UOSAT-12 02 Sep 05:25:03 05:29:39 73° 122° (ESE) 05:34:21 437.025 FM, 437.400 FM
Uosat F 02 Sep 05:37:32 05:42:35 87° 285° (WNW) 05:47:35 435.120 FM
TMSAT-1 02 Sep 05:40:06 05:43:54 20° 299° (WNW) 05:47:41 436.925 FM
Saudisat 1A 02 Sep 05:45:25 05:49:00 23° 41° (NE) 05:52:34 436.775 MHz
KITSAT 1 02 Sep 06:09:07 06:15:30 25° 30° (NNE) 06:21:52 435.175 FM
AO-7 02 Sep 06:20:25 06:28:35 64° 294° (WNW) 06:36:42 29.400 - 29.500 MHz
OPAL 02 Sep 06:21:02 06:21:35 10° 271° (W) 06:22:08 ?
STRAND 1 02 Sep 06:25:15 06:30:08 48° 70° (ENE) 06:35:01 ?
RS-15 02 Sep 06:33:35 06:42:54 33° 106° (ESE) 06:52:03 29.354 - 29.394 USB, Beacon 29.352 USB
Hamsat 02 Sep 06:35:42 06:39:51 42° 98° (E) 06:43:56 145.90 MHz
JAS-2 02 Sep 06:59:41 07:04:56 65° 102° (ESE) 07:10:38 435.800 - 435.900 CW/SSB, 435.910 FM
UOSAT-12 02 Sep 07:06:48 07:10:19 21° 322° (NW) 07:13:53 437.025 FM, 437.400 FM
SO-67 02 Sep 07:13:02 07:14:49 13° 91° (E) 07:16:36 435.3500 MHz FM
Uosat F 02 Sep 07:18:30 07:20:36 13° 303° (WNW) 07:22:42 435.120 FM
Saudisat 1A 02 Sep 07:24:33 07:28:52 52° 240° (WSW) 07:33:08 436.775 MHz
KITSAT 1 02 Sep 08:04:16 08:12:23 74° 55° (NE) 08:20:26 435.175 FM
STRAND 1 02 Sep 08:05:39 08:09:34 22° 267° (W) 08:13:30 ?
Hamsat 02 Sep 08:12:21 08:15:31 20° 295° (WNW) 08:18:39 145.90 MHz
AO-7 02 Sep 08:15:03 08:19:49 17° 316° (NW) 08:24:34 29.400 - 29.500 MHz
RS-15 02 Sep 08:43:14 08:54:17 74° 308° (NW) 09:05:16 29.354 - 29.394 USB, Beacon 29.352 USB
SO-67 02 Sep 08:44:49 08:48:02 37° 288° (WNW) 08:51:15 435.3500 MHz FM
JAS-2 02 Sep 08:46:07 08:49:39 18° 299° (WNW) 08:53:19 435.800 - 435.900 CW/SSB, 435.910 FM
HO-68 02 Sep 08:53:12 08:58:25 21° 91° (E) 09:03:36 435.675 MHz FM
ISS 02 Sep 09:54:39 09:57:49 42° 142° (SE) 10:00:59 145.800 FM
KITSAT 1 02 Sep 10:00:38 10:07:03 27° 255° (WSW) 10:13:27 435.175 FM
UKube-1 02 Sep 10:10:42 10:14:50 41° 99° (E) 10:18:57 145.840 MHz, 145.915 MHz
Oscar 11 02 Sep 10:13:56 10:17:51 31° 96° (E) 10:21:43 145.825 FM, Beacon 2401.500 USB
SO-50 02 Sep 10:30:16 10:33:50 20° 38° (NE) 10:37:26 436.795 FM
HO-68 02 Sep 10:39:39 10:46:49 77° 289° (WNW) 10:53:58 435.675 MHz FM
FUNcube-1 02 Sep 10:47:23 10:51:24 30° 96° (E) 10:55:27 145.950 - 145.970 MHz USB
RS-15 02 Sep 10:59:27 11:08:49 31° 337° (NNW) 11:18:16 29.354 - 29.394 USB, Beacon 29.352 USB
ISS 02 Sep 11:31:28 11:34:36 36° 340° (NNW) 11:37:44 145.800 FM
MaSat-1 02 Sep 11:33:21 11:34:48 11° 98° (E) 11:36:15 437.345 MHz
UKube-1 02 Sep 11:47:33 11:50:46 21° 296° (WNW) 11:53:58 145.840 MHz, 145.915 MHz
Oscar 11 02 Sep 11:50:16 11:53:55 26° 293° (WNW) 11:57:33 145.825 FM, Beacon 2401.500 USB
SO-50 02 Sep 12:10:08 12:14:56 77° 237° (WSW) 12:19:47 436.795 FM
UOSAT-12 02 Sep 12:13:56 12:17:17 19° 36° (NE) 12:20:36 437.025 FM, 437.400 FM
FUNcube-1 02 Sep 12:23:47 12:27:44 30° 292° (WNW) 12:31:44 145.950 - 145.970 MHz USB
HO-68 02 Sep 12:29:04 12:33:25 18° 309° (NW) 12:37:46 435.675 MHz FM
Oscar 19 02 Sep 12:39:10 12:43:21 26° 64° (ENE) 12:47:34 437.125 CW, 437.150 USB
AO-Echo 02 Sep 12:45:10 12:47:34 14° 59° (ENE) 12:49:58 ?
MaSat-1 02 Sep 13:05:56 13:10:54 83° 116° (ESE) 13:16:06 437.345 MHz
JAS-1B 02 Sep 13:08:22 13:16:44 37° 62° (ENE) 13:24:11 435.800 - 435.900 CW/SSB
ISS 02 Sep 13:09:16 13:11:57 22° 0° (N) 13:14:39 145.800 FM
Oscar 16 02 Sep 13:13:35 13:18:34 52° 70° (ENE) 13:23:36 437.025 USB, Beacon 2401.1428
RS-15 02 Sep 13:16:48 13:25:44 27° 13° (NNE) 13:34:48 29.354 - 29.394 USB, Beacon 29.352 USB
ITAMSAT 1 02 Sep 13:18:17 13:22:30 26° 64° (ENE) 13:26:45 435.822 SSB
Uribyol 2 02 Sep 13:27:03 13:31:36 33° 66° (ENE) 13:36:10 436.500 FM
AO-7 02 Sep 13:42:22 13:45:42 13° 39° (NE) 13:49:01 29.400 - 29.500 MHz
TMSAT-1 02 Sep 13:44:24 13:47:37 17° 59° (ENE) 13:50:50 436.925 FM
AO-27 02 Sep 13:47:16 13:52:11 47° 69° (ENE) 13:57:08 436.795 MHz FM
UOSAT-12 02 Sep 13:53:19 13:58:04 86° 236° (WSW) 14:02:45 437.025 FM, 437.400 FM
Oscar 19 02 Sep 14:17:31 14:22:26 45° 261° (W) 14:27:26 437.125 CW, 437.150 USB
AO-Echo 02 Sep 14:20:44 14:25:44 82° 257° (WSW) 14:30:37 ?
Gurwin Techsat 1B 02 Sep 14:32:14 14:37:23 54° 71° (ENE) 14:42:33 435.225 FM
MaSat-1 02 Sep 14:45:02 14:48:35 19° 315° (NW) 14:52:10 437.345 MHz
ISS 02 Sep 14:46:11 14:49:19 37° 20° (NNE) 14:52:27 145.800 FM
Oscar 16 02 Sep 14:54:21 14:58:13 21° 268° (W) 15:02:07 437.025 USB, Beacon 2401.1428
ITAMSAT 1 02 Sep 14:56:52 15:01:47 43° 261° (W) 15:06:43 435.822 SSB
JAS-1B 02 Sep 14:57:15 15:06:52 63° 259° (WSW) 15:15:23 435.800 - 435.900 CW/SSB
Uribyol 2 02 Sep 15:06:23 15:11:02 34° 263° (W) 15:15:43 436.500 FM
Uosat F 02 Sep 15:15:22 15:19:03 21° 62° (ENE) 15:22:45 435.120 FM
TMSAT-1 02 Sep 15:21:37 15:26:54 77° 257° (WSW) 15:32:13 436.925 FM
AO-27 02 Sep 15:27:51 15:31:56 23° 267° (W) 15:36:02 436.795 MHz FM
AO-7 02 Sep 15:28:38 15:36:31 49° 62° (ENE) 15:44:24 29.400 - 29.500 MHz
RS-15 02 Sep 15:30:25 15:41:13 56° 44° (NE) 15:52:23 29.354 - 29.394 USB, Beacon 29.352 USB
Sapphire 02 Sep 15:31:10 15:34:33 17° 105° (ESE) 15:37:58 437.095 MHz 1200 baud AX-25 AFSK
UOSAT-12 02 Sep 15:36:18 15:37:26 11° 254° (WSW) 15:38:35 437.025 FM, 437.400 FM
